[[{"header":{"parameterUnit":"m.s-1","parameterCategory":1,"la1":30.2992,"la2":30.254,"lo1":-89.0895,"lo2":-89.0443,"dy":0.0025,"dx":0.0025,"nx":19,"ny":19,"refTime":"2026-05-21T03:00:00:Z","depth":0,"parameterNumber":2,"parameterNumberName":"U-component_of_WINDS"},"data":[0,0,0,-1.7608,-1.7612,-1.778,-1.7781,-1.7983,-1.7985,0,0,0,0,0,0,0,0,0,0,0,-1.755,-1.7551,-1.7608,-1.7612,-1.778,-1.7781,-1.7983,-1.7985,0,0,0,0,0,0,0,0,0,0,0,-1.755,-1.7551,-1.7553,-1.7613,-1.778,-1.7781,-1.7983,-1.786,0,0,0,0,0,0,0,0,0,0,-1.7699,-1.7637,-1.7551,-1.7553,-1.7614,-1.778,-1.7781,-1.7854,-1.7868,-1.7901,0,-1.7929,0,-1.796,-1.7998,-1.7998,0,0,0,-1.7618,-1.7626,-1.7679,-1.7553,-1.7615,-1.778,-1.7706,-1.7862,-1.7877,-1.7919,-1.7932,-1.794,-1.7964,-1.7999,-1.8,-1.8175,-1.8175,0,0,-1.7609,-1.7576,-1.7669,-1.7688,-1.7662,-1.7701,-1.7711,-1.7871,-1.7883,-1.7933,-1.7945,-1.7967,-1.8,-1.8002,-1.8175,-1.8175,0,0,0,-1.7578,-1.7569,-1.7619,-1.768,-1.7711,-1.7705,-1.7718,-1.7876,-1.7895,-1.7947,-1.7969,-1.8001,-1.8004,-1.8174,-1.8175,-1.817,0,0,0,-1.7573,-1.7552,-1.7614,-1.7596,-1.7708,-1.7796,-1.7719,-1.7884,-1.7903,-1.7968,-1.8001,-1.8005,-1.8173,-1.8174,-1.8169,-1.8173,0,0,0,-1.7542,-1.7548,-1.757,-1.7594,-1.7665,-1.7794,-1.7822,-1.7889,-1.7916,-1.7998,-1.8006,-1.8173,-1.8174,-1.8168,-1.8172,-1.821,0,0,0,-1.75,-1.7563,-1.7569,-1.7648,-1.7664,-1.779,-1.7822,-1.7917,-1.7987,-1.8002,-1.8174,-1.8175,-1.8168,-1.8171,-1.8209,-1.8236,-1.8245,0,0,-1.7561,-1.7569,-1.7618,-1.7629,-1.7746,-1.7767,-1.7884,-1.7978,-1.8015,-1.812,-1.8124,-1.817,-1.8172,-1.821,-1.8305,-1.8311,0,0,0,-1.7626,-1.7661,-1.7699,-1.7765,-1.7839,-1.7903,-1.7983,-1.8019,-1.8109,-1.8062,-1.8195,-1.8197,-1.8221,-1.8236,-1.8241,-1.8264,-1.818,-1.818,-1.818,-1.7665,-1.771,-1.7795,-1.7861,-1.7924,-1.8007,-1.8063,-1.8124,-1.8151,-1.8181,-1.8212,-1.8264,-1.828,-1.8284,-1.8308,-1.8231,-1.8231,-1.8231,-1.8231,-1.7758,-1.7815,-1.785,-1.7945,-1.7992,-1.8072,-1.8155,-1.8172,-1.8253,-1.8244,-1.8267,-1.8253,-1.829,-1.8313,-1.8231,-1.8231,-1.8231,-1.8231,-1.8231,-1.7788,-1.7823,-1.7866,-1.7967,-1.8039,-1.8104,-1.8181,-1.8222,-1.8261,-1.8284,-1.8321,-1.8321,-1.8327,-1.8299,-1.8299,-1.8299,-1.8299,-1.83,-1.83,-1.7802,-1.7851,-1.7911,-1.7996,-1.8044,-1.8113,-1.8198,-1.8247,-1.8311,-1.8335,-1.8336,-1.8359,-1.8286,-1.8266,-1.8303,-1.8302,-1.8302,-1.8302,-1.8301,-1.7879,-1.7869,-1.7961,-1.801,-1.8114,-1.8184,-1.8236,-1.8332,-1.8378,-1.8415,-1.8435,-1.8374,-1.8384,-1.838,-1.8364,-1.8424,-1.8424,-1.8424,-1.8424,-1.7904,-1.7914,-1.8019,-1.8094,-1.8172,-1.8229,-1.8333,-1.84,-1.8468,-1.85,-1.8498,-1.848,-1.8474,-1.8489,-1.8482,-1.8468,-1.8553,-1.8553,-1.8553,-1.7954,-1.7974,-1.8054,-1.8121,-1.8206,-1.8279,-1.8378,-1.8463,-1.8538,-1.8559,-1.8526,-1.852,-1.8493,-1.8482,-1.85,-1.8489,-1.8464,0,0]},{"header":{"parameterUnit":"m.s-1","parameterCategory":1,"la1":30.2992,"la2":30.254,"lo1":-89.0895,"lo2":-89.0443,"dy":0.0025,"dx":0.0025,"nx":19,"ny":19,"refTime":"2026-05-21T03:00:00:Z","depth":0,"parameterNumber":3,"parameterNumberName":"V-component_of_WINDS"},"data":[0,0,0,3.8406,3.8408,3.8482,3.8482,3.857,3.857,0,0,0,0,0,0,0,0,0,0,0,3.8381,3.8382,3.8406,3.8408,3.8482,3.8482,3.8569,3.857,0,0,0,0,0,0,0,0,0,0,0,3.8381,3.8382,3.8382,3.8408,3.8482,3.8482,3.8569,3.8516,0,0,0,0,0,0,0,0,0,0,3.8445,3.8419,3.8382,3.8383,3.8409,3.8482,3.8482,3.8513,3.8519,3.8534,0,3.8547,0,3.856,3.8576,3.8576,0,0,0,3.8409,3.8414,3.8437,3.8383,3.8409,3.8481,3.8449,3.8516,3.8523,3.8541,3.8548,3.8552,3.8562,3.8576,3.8577,3.8661,3.8661,0,0,3.8405,3.8393,3.8433,3.8442,3.8431,3.8446,3.8451,3.852,3.8527,3.8549,3.8554,3.8563,3.8577,3.8578,3.866,3.8661,0,0,0,3.8393,3.839,3.8411,3.8438,3.8452,3.8449,3.8454,3.8524,3.8532,3.8555,3.8564,3.8577,3.8578,3.866,3.8661,3.8665,0,0,0,3.839,3.8382,3.8409,3.8402,3.8451,3.8489,3.8455,3.8527,3.8535,3.8564,3.8577,3.8579,3.866,3.866,3.8664,3.8669,0,0,0,3.8378,3.8381,3.8391,3.8401,3.8433,3.8488,3.85,3.8529,3.8541,3.8576,3.8579,3.866,3.866,3.8663,3.8667,3.8688,0,0,0,3.836,3.8391,3.8391,3.843,3.8432,3.8491,3.85,3.8544,3.8575,3.8578,3.866,3.8661,3.8663,3.8667,3.8687,3.8703,3.8709,0,0,3.8393,3.8395,3.8419,3.8421,3.8477,3.8481,3.8537,3.8576,3.859,3.8636,3.8638,3.8664,3.8667,3.8688,3.8744,3.8748,0,0,0,3.8425,3.8443,3.8461,3.8491,3.8523,3.8552,3.8584,3.8599,3.8639,3.8612,3.8678,3.868,3.8692,3.87,3.8704,3.8716,3.8664,3.8664,3.8664,3.8452,3.8471,3.8513,3.8541,3.857,3.8605,3.863,3.8656,3.8664,3.868,3.8693,3.8725,3.8734,3.8737,3.8749,3.8703,3.8703,3.8703,3.8703,3.8502,3.853,3.8544,3.8589,3.8609,3.8646,3.8682,3.8687,3.8724,3.8716,3.8728,3.8717,3.8741,3.8753,3.8704,3.8704,3.8704,3.8703,3.8703,3.8522,3.8539,3.8558,3.8606,3.864,3.8667,3.8704,3.872,3.8734,3.8746,3.8763,3.8763,3.8765,3.8753,3.8753,3.8753,3.8754,3.8754,3.8754,3.8534,3.8557,3.8587,3.8626,3.8649,3.8681,3.8718,3.874,3.8768,3.8777,3.8777,3.8784,3.8741,3.8729,3.8755,3.8755,3.8755,3.8755,3.8755,3.8578,3.8572,3.8618,3.8641,3.869,3.8723,3.8744,3.8789,3.8809,3.8827,3.8833,3.8798,3.88,3.8798,3.8789,3.8828,3.8828,3.8828,3.8828,3.8595,3.8599,3.8651,3.8687,3.8724,3.8749,3.88,3.883,3.8859,3.8873,3.887,3.8859,3.8855,3.886,3.8856,3.8848,3.8902,3.8902,3.8902,3.8623,3.8632,3.8673,3.8704,3.8744,3.8777,3.8827,3.8867,3.8898,3.8905,3.8884,3.8881,3.8864,3.8858,3.8862,3.8856,3.8841,0,0]}]]